Time,TemperatureF,DewpointF,PressureIn,WindDirection,WindDirectionDegrees,WindSpeedMPH,WindSpeedGustMPH,Humidity,HourlyPrecipIn,Conditions,Clouds,dailyrainin,SoftwareType,DateUTC
2013-02-05 00:01:00,51.0,-99.9,30.12,SE,143,0.0,0.0,-999,0.00,,,0.00,,2013-02-05 07:01:00,
2013-02-05 00:11:00,51.0,-99.9,30.12,SE,143,0.0,0.0,-999,0.00,,,0.00,,2013-02-05 07:11:00,
2013-02-05 00:22:00,51.0,-99.9,30.12,SE,143,0.0,0.0,-999,0.00,,,0.00,,2013-02-05 07:22:00,
2013-02-05 00:32:00,51.0,-99.9,30.12,SE,143,0.0,0.0,-999,0.00,,,0.00,,2013-02-05 07:32:00,
2013-02-05 00:42:00,51.0,-99.9,30.12,SE,143,0.0,0.0,-999,0.00,,,0.00,,2013-02-05 07:42:00,
2013-02-05 00:52:00,50.0,-99.9,30.12,SE,143,0.0,0.0,-999,0.00,,,0.00,,2013-02-05 07:52:00,
2013-02-05 01:01:00,50.0,-99.9,30.13,SE,143,0.0,0.0,-999,0.00,,,0.00,,2013-02-05 08:01:00,
2013-02-05 01:11:00,50.0,-99.9,30.13,SE,143,0.0,0.0,-999,0.00,,,0.00,,2013-02-05 08:11:00,
2013-02-05 01:22:00,50.0,-99.9,30.13,SE,143,0.0,0.0,-999,0.00,,,0.00,,2013-02-05 08:22:00,
2013-02-05 01:32:00,49.0,-99.9,30.12,SW,227,0.0,0.0,-999,0.00,,,0.00,,2013-02-05 08:32:00,
2013-02-05 01:42:00,49.0,-99.9,30.12,SW,227,0.0,0.0,-999,0.00,,,0.00,,2013-02-05 08:42:00,
2013-02-05 01:52:00,50.0,-99.9,30.12,SW,227,0.0,0.0,-999,0.00,,,0.00,,2013-02-05 08:52:00,
2013-02-05 02:02:00,49.0,-99.9,30.12,SW,227,0.0,0.0,-999,0.00,,,0.00,,2013-02-05 09:02:00,
2013-02-05 02:12:00,47.0,-99.9,30.12,SW,227,0.0,0.0,-999,0.00,,,0.00,,2013-02-05 09:12:00,
2013-02-05 02:22:00,47.0,-99.9,30.12,SW,227,0.0,0.0,-999,0.00,,,0.00,,2013-02-05 09:22:00,
2013-02-05 02:32:00,47.0,-99.9,30.12,SW,227,0.0,0.0,-999,0.00,,,0.00,,2013-02-05 09:32:00,
2013-02-05 02:42:00,47.0,-99.9,30.12,SW,227,0.0,0.0,-999,0.00,,,0.00,,2013-02-05 09:42:00,
2013-02-05 02:52:00,46.0,-99.9,30.11,SW,227,0.0,0.0,-999,0.00,,,0.00,,2013-02-05 09:52:00,
2013-02-05 03:02:00,46.0,-99.9,30.11,SW,227,0.0,0.0,-999,0.00,,,0.00,,2013-02-05 10:02:00,
2013-02-05 03:11:00,45.0,-99.9,30.11,SW,227,0.0,0.0,-999,0.00,,,0.00,,2013-02-05 10:11:00,
2013-02-05 03:22:00,45.0,-99.9,30.11,SW,227,0.0,0.0,-999,0.00,,,0.00,,2013-02-05 10:22:00,
2013-02-05 03:32:00,45.0,-99.9,30.11,SW,227,0.0,0.0,-999,0.00,,,0.00,,2013-02-05 10:32:00,
2013-02-05 03:42:00,45.0,-99.9,30.11,SW,227,0.0,0.0,-999,0.00,,,0.00,,2013-02-05 10:42:00,
2013-02-05 03:52:00,45.0,-99.9,30.11,SW,227,0.0,0.0,-999,0.00,,,0.00,,2013-02-05 10:52:00,
2013-02-05 04:01:00,44.0,-99.9,30.11,SW,227,0.0,0.0,-999,0.00,,,0.00,,2013-02-05 11:01:00,
2013-02-05 04:11:00,44.0,-99.9,30.11,SW,227,0.0,0.0,-999,0.00,,,0.00,,2013-02-05 11:11:00,
2013-02-05 04:22:00,43.0,-99.9,30.11,SW,227,0.0,0.0,-999,0.00,,,0.00,,2013-02-05 11:22:00,
2013-02-05 04:32:00,43.0,-99.9,30.11,SW,227,0.0,0.0,-999,0.00,,,0.00,,2013-02-05 11:32:00,
2013-02-05 04:42:00,43.0,-99.9,30.11,SW,227,0.0,0.0,-999,0.00,,,0.00,,2013-02-05 11:42:00,
2013-02-05 04:53:00,42.0,-99.9,30.11,SW,227,0.0,0.0,-999,0.00,,,0.00,,2013-02-05 11:53:00,
2013-02-05 05:02:00,42.0,-99.9,30.11,South,191,0.0,4.0,-999,0.00,,,0.00,,2013-02-05 12:02:00,
2013-02-05 05:12:00,42.0,-99.9,30.11,South,191,0.0,4.0,-999,0.00,,,0.00,,2013-02-05 12:12:00,
2013-02-05 05:22:00,42.0,-99.9,30.11,SW,215,2.0,4.0,-999,0.00,,,0.00,,2013-02-05 12:22:00,
2013-02-05 05:32:00,42.0,-99.9,30.11,SSE,168,1.0,3.0,-999,0.00,,,0.00,,2013-02-05 12:32:00,
2013-02-05 05:42:00,41.0,-99.9,30.11,SSW,194,2.0,7.0,-999,0.00,,,0.00,,2013-02-05 12:42:00,
2013-02-05 05:52:00,41.0,-99.9,30.11,SSW,194,2.0,7.0,-999,0.00,,,0.00,,2013-02-05 12:52:00,
2013-02-05 06:02:00,42.0,-99.9,30.11,South,185,0.0,0.0,-999,0.00,,,0.00,,2013-02-05 13:02:00,
2013-02-05 06:12:00,41.0,-99.9,30.11,South,181,0.0,2.0,-999,0.00,,,0.00,,2013-02-05 13:12:00,
2013-02-05 06:22:00,41.0,-99.9,30.11,South,181,0.0,2.0,-999,0.00,,,0.00,,2013-02-05 13:22:00,
2013-02-05 06:32:00,40.0,-99.9,30.12,South,185,1.0,4.0,-999,0.00,,,0.00,,2013-02-05 13:32:00,
2013-02-05 06:42:00,40.0,-99.9,30.12,South,185,1.0,4.0,-999,0.00,,,0.00,,2013-02-05 13:42:00,
2013-02-05 06:52:00,40.0,-99.9,30.12,SSW,208,0.0,0.0,-999,0.00,,,0.00,,2013-02-05 13:52:00,
2013-02-05 07:01:00,41.0,-99.9,30.13,SSW,208,0.0,0.0,-999,0.00,,,0.00,,2013-02-05 14:01:00,
2013-02-05 07:12:00,41.0,-99.9,30.13,SSW,208,0.0,0.0,-999,0.00,,,0.00,,2013-02-05 14:12:00,
2013-02-05 07:22:00,40.0,-99.9,30.13,SSW,208,0.0,0.0,-999,0.00,,,0.00,,2013-02-05 14:22:00,
2013-02-05 07:32:00,40.0,-99.9,30.14,SSW,208,0.0,0.0,-999,0.00,,,0.00,,2013-02-05 14:32:00,
2013-02-05 07:42:00,40.0,-99.9,30.14,SSW,208,0.0,0.0,-999,0.00,,,0.00,,2013-02-05 14:42:00,
2013-02-05 07:52:00,40.0,-99.9,30.14,SSW,208,0.0,0.0,-999,0.00,,,0.00,,2013-02-05 14:52:00,
2013-02-05 08:02:00,41.0,-99.9,30.14,SSW,208,0.0,0.0,-999,0.00,,,0.00,,2013-02-05 15:02:00,
2013-02-05 08:11:00,41.0,-99.9,30.14,SSW,208,0.0,0.0,-999,0.00,,,0.00,,2013-02-05 15:11:00,
2013-02-05 08:22:00,41.0,-99.9,30.14,South,178,0.0,0.0,-999,0.00,,,0.00,,2013-02-05 15:22:00,
2013-02-05 08:32:00,42.0,-99.9,30.15,South,178,0.0,0.0,-999,0.00,,,0.00,,2013-02-05 15:32:00,
2013-02-05 08:42:00,43.0,-99.9,30.15,South,178,0.0,0.0,-999,0.00,,,0.00,,2013-02-05 15:42:00,
2013-02-05 08:52:00,43.0,-99.9,30.15,South,178,0.0,0.0,-999,0.00,,,0.00,,2013-02-05 15:52:00,
2013-02-05 09:01:00,44.0,-99.9,30.15,South,178,0.0,0.0,-999,0.00,,,0.00,,2013-02-05 16:01:00,
2013-02-05 09:12:00,44.0,-99.9,30.15,South,178,0.0,0.0,-999,0.00,,,0.00,,2013-02-05 16:12:00,
2013-02-05 09:22:00,44.0,-99.9,30.16,South,178,0.0,0.0,-999,0.00,,,0.00,,2013-02-05 16:22:00,
2013-02-05 09:33:00,47.0,-99.9,30.16,South,178,0.0,0.0,-999,0.00,,,0.00,,2013-02-05 16:33:00,
2013-02-05 09:42:00,47.0,-99.9,30.16,South,178,0.0,0.0,-999,0.00,,,0.00,,2013-02-05 16:42:00,
2013-02-05 09:52:00,47.0,-99.9,30.16,South,178,0.0,0.0,-999,0.00,,,0.00,,2013-02-05 16:52:00,
2013-02-05 10:01:00,50.0,-99.9,30.16,South,178,0.0,0.0,-999,0.00,,,0.00,,2013-02-05 17:01:00,
2013-02-05 10:12:00,50.0,-99.9,30.16,South,178,0.0,0.0,-999,0.00,,,0.00,,2013-02-05 17:12:00,
2013-02-05 10:22:00,51.0,-99.9,30.16,South,178,0.0,0.0,-999,0.00,,,0.00,,2013-02-05 17:22:00,
2013-02-05 10:33:00,53.0,-99.9,30.16,South,178,0.0,0.0,-999,0.00,,,0.00,,2013-02-05 17:33:00,
2013-02-05 10:42:00,53.0,-99.9,30.16,South,178,0.0,0.0,-999,0.00,,,0.00,,2013-02-05 17:42:00,
2013-02-05 10:52:00,55.0,-99.9,30.15,SE,146,0.0,0.0,-999,0.00,,,0.00,,2013-02-05 17:52:00,
2013-02-05 11:02:00,58.0,-99.9,30.14,SSE,168,0.0,5.0,-999,0.00,,,0.00,,2013-02-05 18:02:00,
2013-02-05 11:12:00,58.0,-99.9,30.14,SSE,168,0.0,5.0,-999,0.00,,,0.00,,2013-02-05 18:12:00,
2013-02-05 11:22:00,59.0,-99.9,30.14,SE,132,0.0,3.0,-999,0.00,,,0.00,,2013-02-05 18:22:00,
2013-02-05 11:32:00,61.0,-99.9,30.13,South,172,0.0,0.0,-999,0.00,,,0.00,,2013-02-05 18:32:00,
2013-02-05 11:42:00,61.0,-99.9,30.13,South,172,0.0,0.0,-999,0.00,,,0.00,,2013-02-05 18:42:00,
2013-02-05 11:52:00,62.0,-99.9,30.13,SSE,156,0.0,0.0,-999,0.00,,,0.00,,2013-02-05 18:52:00,
2013-02-05 12:02:00,64.0,-99.9,30.12,South,181,0.0,5.0,-999,0.00,,,0.00,,2013-02-05 19:02:00,
2013-02-05 12:11:00,64.0,-99.9,30.12,South,181,0.0,5.0,-999,0.00,,,0.00,,2013-02-05 19:11:00,
2013-02-05 12:22:00,65.0,-99.9,30.11,SSE,168,0.0,0.0,-999,0.00,,,0.00,,2013-02-05 19:22:00,
2013-02-05 12:32:00,65.0,-99.9,30.11,SSW,206,4.0,9.0,-999,0.00,,,0.00,,2013-02-05 19:32:00,
2013-02-05 12:42:00,65.0,-99.9,30.11,SSW,206,4.0,9.0,-999,0.00,,,0.00,,2013-02-05 19:42:00,
2013-02-05 12:52:00,67.0,-99.9,30.10,South,185,2.0,7.0,-999,0.00,,,0.00,,2013-02-05 19:52:00,
2013-02-05 13:02:00,66.0,-99.9,30.09,SSW,209,1.0,5.0,-999,0.00,,,0.00,,2013-02-05 20:02:00,
2013-02-05 13:11:00,66.0,-99.9,30.09,SSW,209,1.0,5.0,-999,0.00,,,0.00,,2013-02-05 20:11:00,
2013-02-05 13:22:00,66.0,-99.9,30.08,SW,225,0.0,0.0,-999,0.00,,,0.00,,2013-02-05 20:22:00,
2013-02-05 13:32:00,66.0,-99.9,30.07,SSE,157,0.0,6.0,-999,0.00,,,0.00,,2013-02-05 20:32:00,
2013-02-05 13:42:00,66.0,-99.9,30.07,SSE,157,0.0,6.0,-999,0.00,,,0.00,,2013-02-05 20:42:00,
2013-02-05 13:52:00,66.0,-99.9,30.06,ESE,112,1.0,8.0,-999,0.00,,,0.00,,2013-02-05 20:52:00,
2013-02-05 14:02:00,66.0,-99.9,30.05,SW,236,4.0,9.0,-999,0.00,,,0.00,,2013-02-05 21:02:00,
2013-02-05 14:11:00,66.0,-99.9,30.05,SW,236,4.0,9.0,-999,0.00,,,0.00,,2013-02-05 21:11:00,
2013-02-05 14:22:00,66.0,-99.9,30.05,ENE,66,0.0,6.0,-999,0.00,,,0.00,,2013-02-05 21:22:00,
2013-02-05 14:32:00,66.0,-99.9,30.04,South,187,3.0,8.0,-999,0.00,,,0.00,,2013-02-05 21:32:00,
2013-02-05 14:42:00,66.0,-99.9,30.04,South,187,3.0,8.0,-999,0.00,,,0.00,,2013-02-05 21:42:00,
2013-02-05 14:52:00,66.0,-99.9,30.03,ENE,63,0.0,6.0,-999,0.00,,,0.00,,2013-02-05 21:52:00,
2013-02-05 15:02:00,66.0,-99.9,30.03,ESE,119,0.0,4.0,-999,0.00,,,0.00,,2013-02-05 22:02:00,
2013-02-05 15:12:00,66.0,-99.9,30.03,ESE,119,0.0,4.0,-999,0.00,,,0.00,,2013-02-05 22:12:00,
2013-02-05 15:22:00,66.0,-99.9,30.02,NE,47,0.0,0.0,-999,0.00,,,0.00,,2013-02-05 22:22:00,
2013-02-05 15:32:00,66.0,-99.9,30.02,North,358,0.0,5.0,-999,0.00,,,0.00,,2013-02-05 22:32:00,
2013-02-05 15:42:00,66.0,-99.9,30.02,North,358,0.0,5.0,-999,0.00,,,0.00,,2013-02-05 22:42:00,
2013-02-05 15:52:00,67.0,-99.9,30.01,North,358,0.0,0.0,-999,0.00,,,0.00,,2013-02-05 22:52:00,
2013-02-05 16:02:00,67.0,-99.9,30.02,East,98,1.0,6.0,-999,0.00,,,0.00,,2013-02-05 23:02:00,
2013-02-05 16:11:00,67.0,-99.9,30.02,East,98,1.0,6.0,-999,0.00,,,0.00,,2013-02-05 23:11:00,
2013-02-05 16:22:00,66.0,-99.9,30.01,South,177,0.0,0.0,-999,0.00,,,0.00,,2013-02-05 23:22:00,
2013-02-05 16:33:00,67.0,-99.9,30.01,South,177,0.0,0.0,-999,0.00,,,0.00,,2013-02-05 23:33:00,
2013-02-05 16:42:00,67.0,-99.9,30.01,South,177,0.0,0.0,-999,0.00,,,0.00,,2013-02-05 23:42:00,
2013-02-05 16:53:00,68.0,-99.9,30.01,West,272,2.0,4.0,-999,0.00,,,0.00,,2013-02-05 23:53:00,
2013-02-05 17:02:00,67.0,-99.9,30.01,West,271,0.0,4.0,-999,0.00,,,0.00,,2013-02-06 00:02:00,
2013-02-05 17:12:00,67.0,-99.9,30.01,West,271,0.0,4.0,-999,0.00,,,0.00,,2013-02-06 00:12:00,
2013-02-05 17:22:00,67.0,-99.9,30.02,WNW,296,5.0,9.0,-999,0.00,,,0.00,,2013-02-06 00:22:00,
2013-02-05 17:32:00,67.0,-99.9,30.02,WNW,292,4.0,4.0,-999,0.00,,,0.00,,2013-02-06 00:32:00,
2013-02-05 17:42:00,67.0,-99.9,30.02,WNW,292,4.0,4.0,-999,0.00,,,0.00,,2013-02-06 00:42:00,
2013-02-05 17:52:00,66.0,-99.9,30.02,WNW,293,1.0,3.0,-999,0.00,,,0.00,,2013-02-06 00:52:00,
2013-02-05 18:02:00,64.0,-99.9,30.01,WNW,302,0.0,1.0,-999,0.00,,,0.00,,2013-02-06 01:02:00,
2013-02-05 18:12:00,64.0,-99.9,30.01,WNW,302,0.0,1.0,-999,0.00,,,0.00,,2013-02-06 01:12:00,
2013-02-05 18:22:00,62.0,-99.9,30.01,WNW,302,0.0,0.0,-999,0.00,,,0.00,,2013-02-06 01:22:00,
2013-02-05 18:33:00,62.0,-99.9,30.02,WNW,302,0.0,0.0,-999,0.00,,,0.00,,2013-02-06 01:33:00,
2013-02-05 18:42:00,62.0,-99.9,30.02,WNW,302,0.0,0.0,-999,0.00,,,0.00,,2013-02-06 01:42:00,
2013-02-05 18:53:00,60.0,-99.9,30.02,WNW,302,0.0,0.0,-999,0.00,,,0.00,,2013-02-06 01:53:00,
2013-02-05 19:02:00,59.0,-99.9,30.02,WNW,302,0.0,0.0,-999,0.00,,,0.00,,2013-02-06 02:02:00,
2013-02-05 19:12:00,59.0,-99.9,30.02,WNW,302,0.0,0.0,-999,0.00,,,0.00,,2013-02-06 02:12:00,
2013-02-05 19:22:00,59.0,-99.9,30.03,WNW,302,0.0,0.0,-999,0.00,,,0.00,,2013-02-06 02:22:00,
2013-02-05 19:32:00,58.0,-99.9,30.03,WNW,302,0.0,0.0,-999,0.00,,,0.00,,2013-02-06 02:32:00,
2013-02-05 19:42:00,58.0,-99.9,30.03,WNW,302,0.0,0.0,-999,0.00,,,0.00,,2013-02-06 02:42:00,
2013-02-05 19:53:00,58.0,-99.9,30.04,WSW,240,0.0,5.0,-999,0.00,,,0.00,,2013-02-06 02:53:00,
2013-02-05 20:03:00,57.0,-99.9,30.05,WNW,282,2.0,7.0,-999,0.00,,,0.00,,2013-02-06 03:03:00,
2013-02-05 20:12:00,57.0,-99.9,30.05,WNW,282,2.0,7.0,-999,0.00,,,0.00,,2013-02-06 03:12:00,
2013-02-05 20:22:00,56.0,-99.9,30.05,West,267,3.0,7.0,-999,0.00,,,0.00,,2013-02-06 03:22:00,
2013-02-05 20:33:00,56.0,-99.9,30.05,WSW,257,1.0,8.0,-999,0.00,,,0.00,,2013-02-06 03:33:00,
2013-02-05 20:43:00,56.0,-99.9,30.05,WSW,257,1.0,8.0,-999,0.00,,,0.00,,2013-02-06 03:43:00,
2013-02-05 20:53:00,56.0,-99.9,30.06,WNW,303,1.0,4.0,-999,0.00,,,0.00,,2013-02-06 03:53:00,
2013-02-05 21:02:00,55.0,-99.9,30.06,NNE,33,1.0,3.0,-999,0.00,,,0.00,,2013-02-06 04:02:00,
2013-02-05 21:11:00,55.0,-99.9,30.06,NNE,33,1.0,3.0,-999,0.00,,,0.00,,2013-02-06 04:11:00,
2013-02-05 21:22:00,55.0,-99.9,30.06,West,271,1.0,6.0,-999,0.00,,,0.00,,2013-02-06 04:22:00,
2013-02-05 21:32:00,55.0,-99.9,30.06,West,271,0.0,0.0,-999,0.00,,,0.00,,2013-02-06 04:32:00,
2013-02-05 21:42:00,55.0,-99.9,30.06,West,271,0.0,0.0,-999,0.00,,,0.00,,2013-02-06 04:42:00,
2013-02-05 21:52:00,53.0,-99.9,30.06,West,271,0.0,0.0,-999,0.00,,,0.00,,2013-02-06 04:52:00,
2013-02-05 22:02:00,53.0,-99.9,30.06,West,271,0.0,0.0,-999,0.00,,,0.00,,2013-02-06 05:02:00,
2013-02-05 22:12:00,53.0,-99.9,30.06,West,271,0.0,0.0,-999,0.00,,,0.00,,2013-02-06 05:12:00,
2013-02-05 22:22:00,53.0,-99.9,30.06,West,271,0.0,0.0,-999,0.00,,,0.00,,2013-02-06 05:22:00,
2013-02-05 22:32:00,53.0,-99.9,30.07,West,271,0.0,0.0,-999,0.00,,,0.00,,2013-02-06 05:32:00,
2013-02-05 22:42:00,53.0,-99.9,30.07,West,271,0.0,0.0,-999,0.00,,,0.00,,2013-02-06 05:42:00,
2013-02-05 22:53:00,52.0,-99.9,30.07,West,271,0.0,0.0,-999,0.00,,,0.00,,2013-02-06 05:53:00,
2013-02-05 23:01:00,52.0,-99.9,30.07,West,271,0.0,0.0,-999,0.00,,,0.00,,2013-02-06 06:01:00,
2013-02-05 23:11:00,52.0,-99.9,30.07,West,271,0.0,0.0,-999,0.00,,,0.00,,2013-02-06 06:11:00,
2013-02-05 23:22:00,49.0,-99.9,30.07,West,271,0.0,0.0,-999,0.00,,,0.00,,2013-02-06 06:22:00,
2013-02-05 23:32:00,49.0,-99.9,30.07,West,271,0.0,0.0,-999,0.00,,,0.00,,2013-02-06 06:32:00,
2013-02-05 23:42:00,49.0,-99.9,30.07,West,271,0.0,0.0,-999,0.00,,,0.00,,2013-02-06 06:42:00,
2013-02-05 23:52:00,49.0,-99.9,30.07,West,271,0.0,0.0,-999,0.00,,,0.00,,2013-02-06 06:52:00,